Regional Weather Roundup
Issued by NWS Cleveland, OH

Home | Current Version | Previous Version | Graphics & Text | Print | Product List | Glossary On
Versions: 1 2 3 4 5 6 7 8 9 10 11 12 13 14 15 16 17 18 19 20 21 22 23 24 25 26 27 28 29 30 31 32 33 34 35 36 37 38 39 40 41 42 43 44 45 46 47 48 49 50
691
ASUS41 KCLE 110210
RWRCLE
OHIO REGIONAL WEATHER ROUNDUP
NATIONAL WEATHER SERVICE WILMINGTON, OH
900 PM EST WED FEB 10 2016

NOTE: "FAIR" INDICATES FEW OR NO CLOUDS BELOW 12,000 FEET WITH NO
SIGNIFICANT WEATHER AND/OR OBSTRUCTIONS TO VISIBILITY.

OHZ001>008-015>018-024>027-034-035-043-044-110300-
   NORTHWEST OHIO

CITY           SKY/WX    TMP DP  RH WIND       PRES   REMARKS
DEFIANCE       CLOUDY    17   8  67 W9G18     30.04R WCI   6
FINDLAY        LGT SNOW  17  12  80 W21       30.00R WCI   0
TOLEDO EXPRESS LGT SNOW  16  12  84 W12       30.00R FOG     WCI   3
TOLEDO EXEC    CLOUDY    19  12  74 NW14      30.00R WCI   6
LIMA           FLURRIES  15   9  76 W20       30.03R WCI  -2
$$

OHZ009>014-019>023-028>033-038-089-110300-
   NORTHEAST OHIO

CITY           SKY/WX    TMP DP  RH WIND       PRES   REMARKS
CLE-HOPKINS    LGT SNOW  18  14  84 W10       29.95R VSB 3/4 WCI   6
CLE-LAKEFRONT  LGT SNOW  22  13  68 W26G32    29.92R WCI   5
CUY CO. ARPT   LGT SNOW  21  12  68 NW16      29.90S WCI   7
LORAIN-ELYRIA  LGT SNOW  18  13  80 W16G23    29.94R WCI   3
ASHTABULA      LGT SNOW  17  14  88 W5        29.88R FOG     WCI  10
AKRON-CANTON   LGT SNOW  17  11  77 W13G22    29.91R WCI   4
WOOSTER        LGT SNOW  16  11  80 W17       29.94R WCI   0
MANSFIELD      LGT SNOW  14  10  84 SW17G24   29.94R FOG     WCI  -3
YOUNGSTOWN     LGT SNOW  17  12  80 SW10      29.87R WCI   5
$$

OHZ042-051>053-060>062-070>072-077>081-110300-
  SOUTHWEST OHIO

CITY           SKY/WX    TMP DP  RH WIND       PRES   REMARKS
CINC-COVINGTON CLOUDY    16   6  65 NW8       30.11R WCI   5
CINC-LUNKEN    CLOUDY    17   6  62 NW7       30.15R WCI   8
HAMILTON       FAIR      14   6  70 W5        30.14R WCI   6
DAYTON         FAIR      12   4  70 W14       30.08R WCI  -3
WRIGHT-PAT AFB PTCLDY    13   3  65 W12       30.08R WCI  -1
DAYTON GENERAL CLOUDY    13   3  64 W7        30.08R WCI   3
WILMINGTON     CLOUDY    13   5  70 W9        30.07R WCI   1
$$

OHZ036-037-039>041-045>050-054>059-063>069-073>076-082>088-110300-
  CENTRAL AND SOUTHEAST OHIO

CITY           SKY/WX    TMP DP  RH WIND       PRES   REMARKS
COLUMBUS       MOCLDY    14   6  70 W10       30.05R WCI   1
OSU AIRPORT    MOCLDY    14   6  70 W12       30.04R WCI   0
BOLTON FIELD   FAIR      13   7  78 W8        30.06R WCI   2
RICKENBACK AFB CLOUDY    13   7  75 W13       30.06S WCI  -1
NEWARK         CLOUDY    14   5  67 MISG      30.03R
MARION         CLOUDY    15   6  67 W16G25    30.01R WCI  -1
LANCASTER      CLOUDY    14   5  67 W12       30.06R WCI   0
ZANESVILLE     MOCLDY    16   7  67 W9        30.03R WCI   4
NEW PHILLY     MOCLDY    17   8  67 W10       29.98R WCI   5
$$




USA.gov is the U.S. government's official web portal to all federal, state and local government web resources and services.